Location: Caltech
(34.1382°N, 118.1253°W)
Time: 09:42:02
(UTC-07:00)

Cosmos 2360 Rocket - Visible Passes

Search period start: 02 September 2014 00:00
Search period end: 12 September 2014 00:00
Orbit: 833 x 847 km, 71.0° (Epoch: 01 September)

Date Brightness Start Highest point End Pass type
(mag) Time Alt. Az. Time Alt. Az. Time Alt. Az.
02 Sep 3.8 03:30:22 26° ESE 03:30:54 26° ESE 03:35:30 10° NE visible
02 Sep 2.9 05:12:11 24° WSW 05:14:41 35° WNW 05:19:49 10° N visible
03 Sep 4.0 03:15:45 24° E 03:15:45 24° E 03:19:49 10° NE visible
03 Sep 2.8 04:57:34 32° W 04:59:05 37° WNW 05:04:18 10° N visible
04 Sep 4.2 03:01:04 21° E 03:01:04 21° E 03:04:06 10° NE visible
04 Sep 2.7 04:42:52 39° W 04:43:29 40° WNW 04:48:46 10° N visible
05 Sep 4.5 02:46:19 17° ENE 02:46:19 17° ENE 02:48:23 10° NE visible
05 Sep 2.7 04:28:07 42° WNW 04:28:07 42° WNW 04:33:14 10° N visible
06 Sep 4.8 02:31:31 14° ENE 02:31:31 14° ENE 02:32:39 10° NE visible
06 Sep 2.9 04:13:18 41° NW 04:13:18 41° NW 04:17:42 10° N visible
07 Sep 5.0 02:16:39 11° ENE 02:16:39 11° ENE 02:16:54 10° ENE visible
07 Sep 3.2 03:58:27 37° NNW 03:58:27 37° NNW 04:02:10 10° N visible
08 Sep 3.5 03:43:33 31° N 03:43:33 31° N 03:46:37 10° N visible
09 Sep 3.9 03:28:36 26° N 03:28:36 26° N 03:31:04 10° NNE visible
10 Sep 4.2 03:13:37 22° N 03:13:37 22° N 03:15:31 10° NNE visible
11 Sep 4.5 02:58:36 18° NNE 02:58:36 18° NNE 02:59:57 10° NNE visible
